Change the Weather History Date:

Thursday, January 3, 2013

  Actual Average (LRTM) Record (LRTM)
Temperature  
Mean Temperature 28 °F -  
Max Temperature 37 °F 35 °F 48 °F (2003)
Min Temperature 18 °F 18 °F 1 °F (2008)
Degree Days  
Heating Degree Days 38    
Moisture  
Dew Point 23 °F    
Average Humidity 86    
Maximum Humidity 100    
Minimum Humidity 57    
Precipitation  
Precipitation 0.00 in 0.04 in - ()
Sea Level Pressure  
Sea Level Pressure 30.43 in    
Wind  
Wind Speed 2 mph ()    
Max Wind Speed 5 mph    
Max Gust Speed -    
Visibility 5.2 miles    
Events      
Averages and records for this station are not official NWS values.
T = Trace of Precipitation, MM = Missing Value Source: Averaged Metar Reports

Daily Weather History Graph

Daily Weather History Graph

Search for Another Location

Airport or City:

Trip Planner

Search our weather history database for the weather conditions in past years. The results will help you decide how hot, cold, wet, or windy it might be!

Date:

Astronomy

Jan. 03, 2013 Rise Set
Actual Time 8:04 AM EET 4:51 PM EET
Civil Twilight 7:30 AM EET 5:25 PM EET
Nautical Twilight 6:53 AM EET 6:03 PM EET
Astronomical Twilight 6:16 AM EET 6:39 PM EET
Moon 11:28 PM EET (1/3) 10:47 AM EET (1/3)
Length of Visible Light 9h 55m
Length of Day
8h 47m
Waning Gibbous, 68% of the Moon is Illuminated
Jan 3
Waning Gibbous
Jan 5
Last Quarter
Jan 11
New
Jan 19
First Quarter
Jan 27
Full

Hourly Weather History & Observations

Time (EET) Temp. Windchill Dew Point Humidity Pressure Visibility Wind Dir Wind Speed Gust Speed Precip Events Conditions
12:00 AM 25 °F - 22 °F 84% 30.41 in 6 mi East 4.5 mph - -   Mostly Cloudy
12:00 AM 26.6 °F 21.2 °F 21.2 °F 80% 30.30 in 3.1 mi East 4.6 mph - N/A   Overcast
1:00 AM 24 °F - 21 °F 85% 30.42 in 6 mi NNE 2.2 mph - -   Partly Cloudy
1:00 AM 24.8 °F 19.1 °F 19.4 °F 80% 30.30 in 3.1 mi ESE 4.6 mph - N/A   Mist
2:00 AM 21 °F - 20 °F 92% 30.44 in 6 mi South 2.2 mph - -  
2:00 AM 19.4 °F - 17.6 °F 93% 30.33 in 2.2 mi Variable 2.3 mph - N/A   Mist
3:00 AM 22 °F - 21 °F 94% 30.45 in 6 mi NE 2.2 mph - -  
3:00 AM 23.0 °F - 19.4 °F 86% 30.33 in 2.8 mi Variable 2.3 mph - N/A   Mist
4:00 AM 21 °F - 20 °F 92% 30.46 in 6 mi NNE 2.2 mph - -  
4:00 AM 19.4 °F - 17.6 °F 93% 30.36 in - Calm Calm - N/A   Partly Cloudy
5:00 AM 20 °F - 18 °F 91% 30.48 in 6 mi SSW 4.5 mph - -  
5:00 AM 21.2 °F 14.9 °F 17.6 °F 86% 30.36 in 1.9 mi Variable 4.6 mph - N/A   Mist
5:30 AM 19.4 °F - 17.6 °F 93% 30.36 in 2.2 mi Variable 2.3 mph - N/A   Mist
6:00 AM 23 °F - 21 °F 91% 30.48 in 6 mi NNE 2.2 mph - -   Clear
6:00 AM 21.2 °F - 19.4 °F 93% 30.36 in 2.5 mi Variable 2.3 mph - N/A   Mist
6:30 AM 21.2 °F - 19.4 °F 93% 30.39 in 2.5 mi East 2.3 mph - N/A   Mist
7:00 AM 22 °F - 20 °F 91% 30.50 in 6 mi ENE 2.2 mph - -   Clear
7:00 AM 19.4 °F - 17.6 °F 93% 30.39 in 2.5 mi Variable 2.3 mph - N/A   Mist
7:30 AM 21.2 °F - 19.4 °F 93% 30.42 in 2.5 mi SE 2.3 mph - N/A   Mist
8:00 AM 22 °F - 21 °F 93% 30.53 in 6 mi NE 2.2 mph - -   Clear
8:00 AM 23.0 °F - 21.2 °F 93% 30.42 in 2.5 mi Variable 2.3 mph - N/A   Mist
8:30 AM 19.4 °F - 17.6 °F 93% 30.45 in 2.8 mi Calm Calm - N/A   Mist
9:00 AM 20 °F - 20 °F 99% 30.56 in 6 mi SE 2.2 mph - -   Clear
9:00 AM 21.2 °F 14.9 °F 19.4 °F 93% 30.45 in 3.1 mi WSW 4.6 mph - N/A   Partly Cloudy
9:30 AM 21.2 °F - 21.2 °F 100% 30.45 in 3.1 mi SW 2.3 mph - N/A   Partly Cloudy
10:00 AM 24.8 °F - 23.0 °F 93% 30.45 in 2.8 mi SW 2.3 mph - N/A   Partly Cloudy
10:30 AM 28.4 °F - 23.0 °F 80% 30.45 in 2.2 mi Variable 2.3 mph - N/A   Partly Cloudy
11:00 AM 29 °F - 24 °F 74% 30.55 in 6 mi SE 2.2 mph - -  
11:00 AM 30.2 °F - 26.6 °F 86% 30.45 in 1.9 mi Variable 2.3 mph - N/A   Partly Cloudy
11:30 AM 33.8 °F - 28.4 °F 81% 30.45 in 2.5 mi Calm Calm - N/A   Partly Cloudy
12:00 PM 35 °F - 29 °F 69% 30.53 in 6 mi Calm Calm - -  
12:00 PM 35.6 °F - 28.4 °F 75% 30.45 in - Calm Calm - N/A   Partly Cloudy
12:30 PM 35.6 °F - 28.4 °F 75% 30.45 in 3.1 mi Calm Calm - N/A   Partly Cloudy
1:00 PM 36 °F - 28 °F 63% 30.51 in 6 mi SE 2.2 mph - -   Scattered Clouds
1:00 PM 35.6 °F - 28.4 °F 75% 30.45 in 3.7 mi Variable 2.3 mph - N/A   Partly Cloudy
1:30 PM 35.6 °F - 28.4 °F 75% 30.42 in 3.7 mi Variable 2.3 mph - N/A   Partly Cloudy
2:00 PM 37 °F - 28 °F 60% 30.50 in 6 mi SE 2.2 mph - -   Scattered Clouds
2:00 PM 35.6 °F 31.7 °F 28.4 °F 75% 30.42 in 3.7 mi SSE 4.6 mph - N/A   Unknown
2:30 PM 35.6 °F - 28.4 °F 75% 30.42 in 4.3 mi South 2.3 mph - N/A   Unknown
3:00 PM 37 °F - 28 °F 61% 30.49 in 12 mi SSE 4.5 mph - -   Clear
3:00 PM 37.4 °F - 28.4 °F 70% 30.42 in 5.0 mi Calm Calm - N/A   Unknown
3:30 PM 37.4 °F - 28.4 °F 70% 30.42 in 5.6 mi Calm Calm - N/A   Unknown
4:00 PM 38 °F - 28 °F 57% 30.48 in 12 mi Calm Calm - -   Clear
4:00 PM 33.8 °F - 26.6 °F 75% 30.42 in 5.0 mi Calm Calm - N/A   Unknown
5:00 PM 32 °F - 27 °F 74% 30.49 in 12 mi SSW 2.2 mph - -   Clear
5:00 PM 30.2 °F 25.4 °F 24.8 °F 80% 30.39 in 5.0 mi SW 4.6 mph - N/A   Unknown
5:30 PM 28.4 °F - 24.8 °F 86% 30.39 in 4.3 mi Calm Calm - N/A   Unknown
6:00 PM 28 °F - 25 °F 85% 30.49 in 12 mi SW 2.2 mph - -   Scattered Clouds
6:00 PM 30.2 °F - 26.6 °F 86% 30.39 in 4.3 mi Variable 2.3 mph - N/A   Unknown
6:30 PM 28.4 °F - 24.8 °F 86% 30.39 in 4.3 mi Variable 2.3 mph - N/A   Unknown
7:00 PM 27 °F - 25 °F 90% 30.49 in 12 mi Calm Calm - -  
7:00 PM 24.8 °F - 23.0 °F 93% 30.39 in - Variable 2.3 mph - N/A   Clear
7:30 PM 24.8 °F 19.1 °F 23.0 °F 93% 30.39 in - ESE 4.6 mph - N/A   Clear
8:00 PM 25 °F - 25 °F 98% 30.50 in 12 mi ENE 2.2 mph - -  
8:00 PM 24.8 °F - 23.0 °F 93% 30.39 in - ESE 2.3 mph - N/A   Clear
8:30 PM 23.0 °F - 23.0 °F 100% 30.39 in 3.7 mi SSE 2.3 mph - N/A   Unknown
9:00 PM 22 °F - 22 °F 100% 30.51 in 12 mi SE 2.2 mph - -  
9:00 PM 21.2 °F - 21.2 °F 100% 30.36 in 3.7 mi SSE 2.3 mph - N/A   Unknown
10:00 PM 25 °F - 25 °F 100% 30.47 in 6 mi Calm Calm - -  
10:00 PM 23.0 °F 17.0 °F 23.0 °F 100% 30.36 in 3.1 mi West 4.6 mph - N/A   Mostly Cloudy
11:00 PM 26 °F - 26 °F 99% 30.46 in 12 mi NNW 2.2 mph - -  
11:00 PM 24.8 °F - 23.0 °F 93% 30.36 in 3.7 mi Variable 2.3 mph - N/A   Mostly Cloudy